| time (UTC) | temp F | wind direction | speed MPH | gust MPH | rain 1hr in | rain 24hr in | rain mn in | humidity % | barometer mb |
| 20260509183022 | 60 | 332 | 0.0 | 3.0 | 0.00 | 0.00 | 0.00 | 43 | 1019.0 |
| 20260509181523 | 60 | 17 | 0.0 | 3.0 | 0.00 | 0.00 | 0.00 | 44 | 1018.8 |
| 20260509180030 | 60 | 322 | 0.0 | 3.0 | 0.00 | 0.00 | 0.00 | 44 | 1018.8 |
| 20260509174514 | 60 | 2 | 1.0 | 4.0 | 0.00 | 0.00 | 0.00 | 44 | 1018.7 |
| 20260509173020 | 60 | 8 | 1.0 | 5.0 | 0.00 | 0.00 | 0.00 | 45 | 1018.6 |
| 20260509171504 | 60 | 290 | 2.0 | 3.0 | 0.00 | 0.00 | 0.00 | 45 | 1018.5 |
| 20260509170006 | 60 | 3 | 2.0 | 5.0 | 0.00 | 0.00 | 0.00 | 43 | 1018.4 |
| 20260509164511 | 61 | 186 | 1.0 | 6.0 | 0.00 | 0.00 | 0.00 | 41 | 1018.3 |
| 20260509163023 | 61 | 301 | 2.0 | 6.0 | 0.00 | 0.00 | 0.00 | 43 | 1018.2 |
| 20260509161504 | 60 | 251 | 3.0 | 6.0 | 0.00 | 0.00 | 0.00 | 46 | 1018.1 |
| 20260509160007 | 60 | 272 | 2.0 | 5.0 | 0.00 | 0.00 | 0.00 | 49 | 1018.0 |
| 20260509154516 | 60 | 347 | 1.0 | 7.0 | 0.00 | 0.00 | 0.00 | 49 | 1017.9 |
| 20260509153020 | 59 | 262 | 2.0 | 5.0 | 0.00 | 0.00 | 0.00 | 50 | 1017.8 |
| 20260509151519 | 59 | 328 | 2.0 | 5.0 | 0.00 | 0.00 | 0.00 | 53 | 1017.7 |
| 20260509150005 | 58 | 271 | 2.0 | 5.0 | 0.00 | 0.00 | 0.00 | 54 | 1017.6 |
| 20260509144514 | 57 | 331 | 2.0 | 5.0 | 0.00 | 0.00 | 0.00 | 53 | 1017.4 |
| 20260509143019 | 57 | 283 | 3.0 | 9.0 | 0.00 | 0.00 | 0.00 | 55 | 1017.3 |
| 20260509141536 | 56 | 287 | 5.0 | 9.0 | 0.00 | 0.00 | 0.00 | 59 | 1017.3 |
| 20260509140026 | 55 | 266 | 4.0 | 8.0 | 0.00 | 0.00 | 0.00 | 62 | 1017.1 |
| 20260509134523 | 54 | 269 | 4.0 | 7.0 | 0.00 | 0.00 | 0.00 | 61 | 1017.0 |
| 20260509133010 | 54 | 256 | 3.0 | 6.0 | 0.00 | 0.00 | 0.00 | 63 | 1016.8 |
| 20260509131526 | 53 | 240 | 3.0 | 5.0 | 0.00 | 0.00 | 0.00 | 64 | 1016.7 |
| 20260509130026 | 52 | 289 | 0.0 | 3.0 | 0.00 | 0.00 | 0.00 | 65 | 1016.6 |
| 20260509124525 | 52 | 289 | 1.0 | 2.0 | 0.00 | 0.00 | 0.00 | 64 | 1016.5 |
| 20260509123014 | 52 | 348 | 0.0 | 2.0 | 0.00 | 0.00 | 0.00 | 64 | 1016.4 |
| 20260509121517 | 52 | 348 | 0.0 | 4.0 | 0.00 | 0.00 | 0.00 | 64 | 1016.2 |
| 20260509120024 | 52 | 287 | 1.0 | 4.0 | 0.00 | 0.00 | 0.00 | 64 | 1016.0 |
| 20260509114533 | 53 | 315 | 1.0 | 6.0 | 0.00 | 0.00 | 0.00 | 65 | 1015.7 |
| 20260509113027 | 53 | 292 | 4.0 | 7.0 | 0.00 | 0.00 | 0.00 | 65 | 1015.6 |
| 20260509111514 | 53 | 276 | 3.0 | 6.0 | 0.00 | 0.00 | 0.00 | 64 | 1015.5 |
| 20260509110020 | 53 | 274 | 4.0 | 9.0 | 0.00 | 0.00 | 0.00 | 64 | 1015.5 |
| 20260509104523 | 53 | 255 | 1.0 | 6.0 | 0.00 | 0.00 | 0.00 | 64 | 1015.5 |
| 20260509103027 | 54 | 279 | 3.0 | 7.0 | 0.00 | 0.00 | 0.00 | 62 | 1015.4 |
| 20260509101530 | 54 | 265 | 3.0 | 9.0 | 0.00 | 0.00 | 0.00 | 62 | 1015.1 |
| 20260509100017 | 54 | 285 | 4.0 | 7.0 | 0.00 | 0.00 | 0.00 | 63 | 1014.8 |
| 20260509094529 | 54 | 314 | 4.0 | 9.0 | 0.00 | 0.00 | 0.00 | 63 | 1014.6 |
| 20260509093028 | 54 | 301 | 4.0 | 11.0 | 0.00 | 0.00 | 0.00 | 63 | 1014.4 |
| 20260509091529 | 54 | 288 | 5.0 | 11.0 | 0.00 | 0.00 | 0.00 | 62 | 1014.3 |
| 20260509090016 | 54 | 277 | 6.0 | 12.0 | 0.00 | 0.00 | 0.00 | 61 | 1014.3 |
| 20260509084519 | 54 | 277 | 5.0 | 9.0 | 0.00 | 0.00 | 0.00 | 61 | 1014.1 |
| 20260509083026 | 54 | 271 | 3.0 | 7.0 | 0.00 | 0.00 | 0.00 | 60 | 1014.0 |
| 20260509081543 | 55 | 282 | 2.0 | 8.0 | 0.00 | 0.00 | 0.00 | 58 | 1014.1 |
| 20260509080028 | 55 | 257 | 2.0 | 6.0 | 0.00 | 0.00 | 0.00 | 58 | 1013.9 |
| 20260509074520 | 55 | 268 | 3.0 | 7.0 | 0.00 | 0.00 | 0.00 | 59 | 1014.0 |
| 20260509073010 | 55 | 288 | 4.0 | 9.0 | 0.00 | 0.00 | 0.00 | 59 | 1013.9 |
| 20260509071509 | 55 | 281 | 4.0 | 8.0 | 0.00 | 0.00 | 0.00 | 58 | 1013.7 |
| 20260509070027 | 55 | 300 | 4.0 | 9.0 | 0.00 | 0.00 | 0.00 | 58 | 1013.5 |
| 20260509064520 | 55 | 308 | 4.0 | 11.0 | 0.00 | 0.00 | 0.00 | 59 | 1013.5 |
| 20260509063044 | 56 | 257 | 6.0 | 12.0 | 0.00 | 0.00 | 0.00 | 58 | 1013.3 |
| 20260509061505 | 56 | 262 | 7.0 | 14.0 | 0.00 | 0.00 | 0.00 | 56 | 1013.0 |
| 20260509060010 | 57 | 291 | 7.0 | 17.0 | 0.00 | 0.00 | 0.00 | 54 | 1012.9 |
| 20260509054515 | 57 | 290 | 9.0 | 17.0 | 0.00 | 0.00 | 0.00 | 53 | 1012.5 |
| 20260509053022 | 58 | 276 | 8.0 | 13.0 | 0.00 | 0.00 | 0.00 | 53 | 1012.6 |
| 20260509051525 | 58 | 294 | 6.0 | 12.0 | 0.00 | 0.00 | 0.00 | 53 | 1012.6 |
| 20260509050008 | 59 | 305 | 6.0 | 12.0 | 0.00 | 0.00 | 0.00 | 51 | 1012.5 |
| 20260509044513 | 60 | 277 | 6.0 | 14.0 | 0.00 | 0.00 | 0.00 | 49 | 1012.2 |
| 20260509043015 | 60 | 297 | 7.0 | 12.0 | 0.00 | 0.00 | 0.00 | 47 | 1012.1 |
| 20260509041522 | 62 | 285 | 6.0 | 12.0 | 0.00 | 0.00 | 0.00 | 44 | 1012.0 |
| 20260509040027 | 62 | 264 | 6.0 | 11.0 | 0.00 | 0.00 | 0.00 | 41 | 1011.8 |
| 20260509034511 | 63 | 281 | 5.0 | 12.0 | 0.00 | 0.00 | 0.00 | 37 | 1011.7 |
| 20260509033016 | 65 | 296 | 3.0 | 5.0 | 0.00 | 0.00 | 0.00 | 27 | 1011.3 |
| 20260509031522 | 65 | 266 | 3.0 | 10.0 | 0.00 | 0.00 | 0.00 | 27 | 1010.8 |
| 20260509030026 | 65 | 223 | 1.0 | 5.0 | 0.00 | 0.00 | 0.00 | 28 | 1010.8 |
| 20260509024526 | 66 | 158 | 1.0 | 14.0 | 0.00 | 0.00 | 0.00 | 28 | 1010.4 |
| 20260509023014 | 67 | 286 | 12.0 | 18.0 | 0.00 | 0.00 | 0.00 | 25 | 1010.5 |
| 20260509021520 | 68 | 5 | 3.0 | 7.0 | 0.00 | 0.00 | 0.00 | 21 | 1010.1 |
| 20260509020036 | 69 | 325 | 1.0 | 4.0 | 0.00 | 0.00 | 0.00 | 20 | 1009.9 |
| 20260509014541 | 70 | 18 | 3.0 | 6.0 | 0.00 | 0.00 | 0.00 | 19 | 1009.6 |
| 20260509013012 | 70 | 32 | 2.0 | 9.0 | 0.00 | 0.00 | 0.00 | 19 | 1009.4 |
| 20260509011520 | 71 | 39 | 4.0 | 10.0 | 0.00 | 0.00 | 0.00 | 18 | 1009.4 |
| 20260509010003 | 71 | 359 | 4.0 | 12.0 | 0.00 | 0.00 | 0.00 | 18 | 1009.4 |
| 20260509004514 | 71 | 359 | 3.0 | 9.0 | 0.00 | 0.00 | 0.00 | 17 | 1009.3 |
| 20260509003027 | 72 | 353 | 4.0 | 11.0 | 0.00 | 0.00 | 0.00 | 17 | 1009.3 |
| 20260509001518 | 72 | 342 | 7.0 | 11.0 | 0.00 | 0.00 | 0.00 | 17 | 1009.4 |
| 20260509000004 | 73 | 338 | 7.0 | 14.0 | 0.00 | 0.00 | 0.00 | 17 | 1009.4 |
| 20260508234503 | 73 | 335 | 7.0 | 15.0 | 0.00 | 0.00 | 0.00 | 17 | 1009.3 |
| 20260508233008 | 74 | 354 | 5.0 | 14.0 | 0.00 | 0.00 | 0.00 | 17 | 1009.2 |
| 20260508231514 | 75 | 333 | 8.0 | 16.0 | 0.00 | 0.00 | 0.00 | 17 | 1009.1 |
| 20260508230020 | 76 | 1 | 9.0 | 17.0 | 0.00 | 0.00 | 0.00 | 17 | 1009.2 |
| 20260508224503 | 77 | 242 | 7.0 | 14.0 | 0.00 | 0.00 | 0.00 | 17 | 1009.4 |
| 20260508223010 | 76 | 337 | 9.0 | 13.0 | 0.00 | 0.00 | 0.00 | 17 | 1009.3 |
| 20260508221512 | 76 | 359 | 6.0 | 14.0 | 0.00 | 0.00 | 0.00 | 17 | 1009.3 |
| 20260508220018 | 76 | 251 | 7.0 | 19.0 | 0.00 | 0.00 | 0.00 | 18 | 1009.4 |
| 20260508214522 | 77 | 283 | 8.0 | 15.0 | 0.00 | 0.00 | 0.00 | 18 | 1009.5 |
| 20260508213006 | 76 | 300 | 7.0 | 15.0 | 0.00 | 0.00 | 0.00 | 18 | 1009.6 |
| 20260508211516 | 76 | 276 | 8.0 | 15.0 | 0.00 | 0.00 | 0.00 | 19 | 1009.6 |
| 20260508210018 | 75 | 256 | 7.0 | 24.0 | 0.00 | 0.00 | 0.00 | 19 | 1009.6 |
| 20260508204520 | 75 | 279 | 8.0 | 16.0 | 0.00 | 0.00 | 0.00 | 19 | 1009.6 |
| 20260508203025 | 75 | 316 | 7.0 | 18.0 | 0.00 | 0.00 | 0.00 | 19 | 1009.8 |
| 20260508201511 | 75 | 277 | 8.0 | 19.0 | 0.00 | 0.00 | 0.00 | 18 | 1010.0 |
| 20260508200022 | 75 | 249 | 5.0 | 22.0 | 0.00 | 0.00 | 0.00 | 20 | 1010.0 |
| 20260508194520 | 74 | 270 | 6.0 | 15.0 | 0.00 | 0.00 | 0.00 | 21 | 1010.2 |
| 20260508193024 | 74 | 276 | 9.0 | 15.0 | 0.00 | 0.00 | 0.00 | 20 | 1010.3 |
| 20260508191521 | 74 | 281 | 5.0 | 16.0 | 0.00 | 0.00 | 0.00 | 18 | 1010.4 |
| 20260508190022 | 73 | 293 | 7.0 | 19.0 | 0.00 | 0.00 | 0.00 | 19 | 1010.5 |
| 20260508184520 | 72 | 300 | 5.0 | 13.0 | 0.00 | 0.00 | 0.00 | 23 | 1010.6 |